Ephrata, WA
on Monday, February 11, 2013

Monday
Previous Day Next Day
Daily Summary
 ActualAverageRecord
Temperature
Mean Temperature °F 33°F  
Max Temperature 38°F 41°F 54°F (1977)
Min Temperature 23°F 25°F 14°F (1959)
Degree Days
Heating Degree Days 34 32  
Month to date heating degree days 343 360  
Since 1 July heating degree days 3779 4068  
Cooling Degree Days 0 0  
Month to date cooling degree days 0 0  
Year to date cooling degree days 0 0  
Moisture
Dew Point 26°F   
Average Humidity 83    
Maximum Humidity 96    
Minimum Humidity 70    
Precipitation
Precipitation 0.00 in 0.03 in 0.39 in (1997)
Month to date precipitation T 0.28  
Year to date precipitation 0.19 1.19  
Wind
Wind Speed 8 mph   
Max Wind Speed 15 mph   
Max Gust Speed 18 mph   
Visibility 10 miles   
Events     

Key: T is trace of precipitation, MM is missing value
Source: NWS Daily Summary
Time(PST)TemperatureDew PointHumidity Pressure Visibility Wind DirectionWind SpeedGust SpeedPrecipitationEvents Conditions
12:53 AM 27.0°F 24.1°F 89% 30.22 in 9.0 miles North 6.9 mph - N/A   Clear
1:53 AM 26.1°F 23.0°F 88% 30.22 in 8.0 miles North 6.9 mph - N/A   Clear
2:53 AM 26.1°F 23.0°F 88% 30.22 in 9.0 miles North 8.1 mph - N/A   Clear
3:53 AM 26.1°F 23.0°F 88% 30.22 in 9.0 miles North 11.5 mph - N/A   Clear
4:53 AM 24.1°F 21.0°F 88% 30.21 in 9.0 miles North 5.8 mph - N/A   Clear
5:53 AM 24.1°F 21.9°F 91% 30.22 in 9.0 miles North 8.1 mph - N/A   Clear
6:53 AM 23.0°F 21.0°F 92% 30.23 in 9.0 miles North 9.2 mph - N/A   Clear
7:53 AM 26.1°F 23.0°F 88% 30.24 in 9.0 miles North 9.2 mph - N/A   Clear
8:53 AM 30.0°F 26.1°F 85% 30.25 in 10.0 miles North 10.4 mph - N/A   Clear
9:53 AM 33.1°F 27.0°F 78% 30.25 in 10.0 miles North 13.8 mph - N/A   Clear
10:17 AM 33.8°F 26.6°F 75% 30.22 in 10.0 miles NNW 11.5 mph - N/A   Mostly Cloudy
10:53 AM 34.0°F 28.0°F 79% 30.26 in 10.0 miles NW 12.7 mph - N/A   Scattered Clouds
11:53 AM 37.0°F 28.0°F 70% 30.25 in 10.0 miles North 11.5 mph - N/A   Clear
12:53 PM 37.0°F 28.9°F 73% 30.25 in 10.0 miles NNW 9.2 mph - N/A   Clear
1:53 PM 37.9°F 28.9°F 70% 30.23 in 10.0 miles NNW 8.1 mph - N/A   Clear
2:53 PM 37.0°F 28.9°F 73% 30.24 in 10.0 miles NW 8.1 mph - N/A   Clear
3:53 PM 37.0°F 28.9°F 73% 30.24 in 10.0 miles NW 6.9 mph - N/A   Clear
4:53 PM 35.1°F 28.0°F 76% 30.24 in 10.0 miles NW 5.8 mph - N/A   Clear
5:53 PM 33.1°F 28.0°F 82% 30.25 in 10.0 miles NW 8.1 mph - N/A   Clear
6:53 PM 32.0°F 27.0°F 82% 30.25 in 10.0 miles NW 5.8 mph - N/A   Mostly Cloudy
7:53 PM 32.0°F 27.0°F 82% 30.26 in 10.0 miles NW 6.9 mph - N/A   Clear
8:53 PM 30.9°F 27.0°F 85% 30.25 in 10.0 miles NNW 4.6 mph - N/A   Clear
9:53 PM 30.0°F 26.1°F 85% 30.26 in 10.0 miles North 5.8 mph - N/A   Clear
10:53 PM 30.0°F 26.1°F 85% 30.27 in 10.0 miles North 4.6 mph - N/A   Clear
11:53 PM 28.9°F 26.1°F 89% 30.27 in 10.0 miles NW 5.8 mph - N/A   Clear
Moon Phase
Feb. 11 Feb. 17 Feb. 25 Mar. 04 Mar. 11
Sunrise:07:08 AM (PST) Moon Rise:07:26 AM (PST)2/11
Sunset:05:16 PM (PST) Moon Set:07:30 PM (PST)2/11

Copyright © 2014 The Weather Underground, Inc.